Stations météo

réclame
Mon MeteoGroup
Charterhall, Grande-Bretagne (3158): Température de l'air & dewpoint: 18.01.2018 09:00:00 - 24.01.2018 09:00:00 (GMT)Charterhall, Grande-Bretagne (3158): Vitesse du vent & gusts: 18.01.2018 09:00:00 - 24.01.2018 09:00:00 (GMT)Charterhall, Grande-Bretagne (3158): Direction du vent: 18.01.2018 09:00:00 - 24.01.2018 09:00:00 (GMT)Charterhall, Grande-Bretagne (3158): reduced air pressure: 18.01.2018 09:00:00 - 24.01.2018 09:00:00 (GMT)Charterhall, Grande-Bretagne (3158): visibility: 18.01.2018 09:00:00 - 24.01.2018 09:00:00 (GMT)Charterhall, Grande-Bretagne (3158): Ensoleillement: 18.01.2018 09:00:00 - 24.01.2018 09:00:00 (GMT)Charterhall, Grande-Bretagne (3158): Quantités de précipitations: 18.01.2018 09:00:00 - 24.01.2018 09:00:00 (GMT)
Date & Time tt [°C] td [°C] ff [km/h] ff [knt] fx [km/h] fx [knt] dd ppp [hPa] vv [km] sd [min] rr [mm]
24.01.2018 09:00:00 7,0 1,9 42 23 74 40 SW 985,8 50 0 0,0
24.01.2018 08:00:00 7,4 3,7 54 29 85 46 SW 984,7 50 0 0,0
24.01.2018 07:00:00 8,6 6,8 41 22 70 38 SW 984,5 11 0 0,2
24.01.2018 06:00:00 9,8 8,1 52 28 74 40 SSW 984,2 24 0 1,4
24.01.2018 05:00:00 8,6 7,9 39 21 55 30 S 986,2 5 0 1,4
24.01.2018 04:00:00 8,0 7,2 35 19 57 31 SSW 989,1 8 0 2,2
24.01.2018 03:00:00 7,8 6,4 42 23 55 30 SSW 991,6 9 0 0,4
24.01.2018 02:00:00 6,9 6,0 29 16 - - SSW 994,0 13 0 1,2
24.01.2018 01:00:00 7,0 5,4 22 12 - - SSW 997,5 10 0 0,0
24.01.2018 00:00:00 6,3 4,3 16 9 - - WSW 999,6 28 - 0,0
23.01.2018 23:00:00 6,1 4,2 22 12 - - SW 1000,5 28 0 0,0
23.01.2018 22:00:00 5,4 3,5 29 16 - - SW 1001,3 50 0 0,0
23.01.2018 21:00:00 4,9 3,0 26 14 - - SW 1001,8 50 0 0,0
23.01.2018 20:00:00 5,9 2,6 24 13 - - SW 1001,0 50 0 0,0
23.01.2018 19:00:00 7,1 4,9 18 10 - - SW 999,8 50 0 0,0
23.01.2018 18:00:00 8,4 6,5 28 15 - - SW 998,9 28 0 0,0
23.01.2018 17:00:00 8,7 6,9 28 15 - - SW 998,6 50 0 0,2
23.01.2018 16:00:00 8,7 7,9 39 21 55 30 SW 998,4 7 0 0,2
23.01.2018 15:00:00 8,6 7,9 21 11 63 34 WSW 998,2 35 0 2,8
23.01.2018 14:00:00 9,8 8,2 41 22 67 36 SW 997,9 50 0 0,0
23.01.2018 13:00:00 10,4 8,7 50 27 70 38 SW 997,6 50 12 0,0
23.01.2018 12:00:00 10,7 9,3 42 23 67 36 SW 997,5 50 0 0,0
23.01.2018 11:00:00 8,9 8,5 29 16 - - SSW 998,3 50 0 0,2
23.01.2018 10:00:00 6,8 6,4 21 11 - - SSW 999,5 50 0 0,2
23.01.2018 09:00:00 6,4 5,8 22 12 - - SSW 1000,8 28 0 0,0
23.01.2018 08:00:00 6,0 4,9 13 7 - - SSW 1001,4 50 0 0,0
23.01.2018 07:00:00 5,7 4,5 26 14 - - SSW 1002,7 50 0 0,0
23.01.2018 06:00:00 5,7 4,4 37 20 - - SSW 1003,9 50 0 -
23.01.2018 05:00:00 6,0 4,4 24 13 - - SSW 1005,3 50 0 0,0
23.01.2018 04:00:00 5,6 3,9 22 12 - - SSW 1006,4 50 0 0,0
23.01.2018 03:00:00 5,2 3,9 13 7 - - SW 1007,5 50 0 0,0
23.01.2018 02:00:00 5,2 4,1 16 9 - - SW 1008,8 50 0 0,0
23.01.2018 01:00:00 4,5 3,3 26 14 - - SW 1009,2 40 0 0,0
23.01.2018 00:00:00 3,7 2,6 15 8 - - SW 1009,9 45 - 0,0
22.01.2018 23:00:00 4,1 2,8 26 14 - - SW 1009,6 30 0 0,0
22.01.2018 22:00:00 3,9 2,3 26 14 - - SW 1009,8 30 0 0,0
22.01.2018 21:00:00 3,8 2,1 24 13 - - SW 1009,6 35 0 0,0
22.01.2018 20:00:00 4,0 2,2 24 13 - - WSW 1009,4 30 0 0,0
22.01.2018 19:00:00 3,6 2,3 16 9 - - SW 1009,4 40 0 0,0
22.01.2018 18:00:00 3,6 2,7 15 8 - - SW 1008,8 50 0 0,0
22.01.2018 17:00:00 2,8 1,6 11 6 - - SW 1008,1 45 0 0,0
22.01.2018 16:00:00 3,5 2,1 11 6 - - SW 1007,3 50 0 0,0
22.01.2018 15:00:00 3,4 2,1 11 6 - - SW 1006,7 35 0 0,0
22.01.2018 14:00:00 3,3 2,3 18 10 - - SW 1006,2 35 6 0,0
22.01.2018 13:00:00 3,0 2,1 24 13 - - SW 1005,2 40 0 0,0
22.01.2018 12:00:00 3,4 2,0 13 7 - - SW 1004,9 30 0 0,0
22.01.2018 11:00:00 2,9 1,7 11 6 - - SW 1004,3 30 18 0,2
22.01.2018 10:00:00 2,9 1,8 22 12 - - SW 1003,6 45 18 0,0
22.01.2018 09:00:00 2,4 1,4 16 9 - - WSW 1002,9 50 0 0,0
22.01.2018 08:00:00 2,8 1,8 13 7 - - WSW 1002,2 30 0 0,0
22.01.2018 07:00:00 2,9 1,9 18 10 - - WSW 1001,7 45 0 0,0
22.01.2018 06:00:00 2,4 1,7 15 8 - - SW 1001,2 50 0 0,0
22.01.2018 05:00:00 1,3 0,8 5 3 - - S 1000,7 29 0 0,0
22.01.2018 04:00:00 2,7 1,8 11 6 - - WSW 1000,3 45 0 0,0
22.01.2018 03:00:00 3,4 2,7 15 8 - - WSW 999,7 45 0 0,0
22.01.2018 02:00:00 2,9 2,0 15 8 - - WSW 999,8 30 0 0,0
22.01.2018 01:00:00 2,6 1,7 13 7 - - WSW 999,5 45 0 0,2
22.01.2018 00:00:00 2,9 2,0 18 10 - - WSW 999,1 50 - 0,0
21.01.2018 23:00:00 2,5 2,1 22 12 - - SW 999,2 50 0 0,0
21.01.2018 22:00:00 1,9 1,6 21 11 - - SW 999,1 45 0 0,0
21.01.2018 21:00:00 1,1 0,9 15 8 - - SSW 998,7 11 0 0,0
21.01.2018 20:00:00 0,6 0,4 9 5 - - SW 999,1 6 0 0,0
21.01.2018 19:00:00 0,5 0,2 8 4 - - SSW 999,6 4,9 0 0,0
21.01.2018 18:00:00 0,6 0,1 11 6 - - SSW 1000,4 3,7 0 0,0
21.01.2018 17:00:00 0,6 0,2 11 6 - - S 1001,0 22 0 0,0
21.01.2018 16:00:00 -0,1 -0,5 5 3 - - NE 1002,7 7 0 0,0
21.01.2018 15:00:00 0,0 -0,5 5 3 - - SE 1004,4 1,5 0 0,0
21.01.2018 14:00:00 0,3 -1,8 9 5 - - S 1006,3 1,3 0 0,0
21.01.2018 13:00:00 0,3 -3,5 5 3 - - SW 1007,2 50 0 0,0
21.01.2018 12:00:00 -0,8 -4,3 4 2 - - SW 1008,1 50 0 0,0
21.01.2018 11:00:00 -1,0 -3,2 2 1 - - NE 1009,7 50 0 0,0
21.01.2018 10:00:00 -3,1 -4,9 5 3 - - NE 1010,7 50 0 0,0
21.01.2018 09:00:00 -2,7 -4,7 5 3 - - W 1010,7 50 0 0,0
21.01.2018 08:00:00 -3,8 -5,3 0 0 - - N 1010,9 50 0 0,0
21.01.2018 07:00:00 -3,2 -4,9 2 1 - - SW 1011,0 50 0 0,0
21.01.2018 06:00:00 -2,8 -5,2 8 4 - - SSW 1011,9 50 0 0,0
21.01.2018 05:00:00 -2,5 -4,8 15 8 - - W 1011,9 50 0 0,0
21.01.2018 04:00:00 -3,6 -5,6 11 6 - - W 1012,0 50 0 0,0
21.01.2018 03:00:00 -4,3 -6,3 13 7 - - WSW 1012,0 50 0 0,0
21.01.2018 02:00:00 -4,4 -7,3 9 5 - - SSW 1011,5 50 0 0,0
21.01.2018 01:00:00 -2,4 -6,7 9 5 - - W 1010,8 50 0 0,0
21.01.2018 00:00:00 -1,9 -5,2 16 9 - - WNW 1010,2 50 - 0,0
20.01.2018 23:00:00 -1,9 -5,6 13 7 - - WNW 1009,5 50 0 0,0
20.01.2018 22:00:00 -0,6 -4,0 8 4 - - W 1008,6 50 0 0,0
20.01.2018 21:00:00 -3,1 -5,2 9 5 - - W 1007,9 50 0 0,0
20.01.2018 20:00:00 -3,1 -4,8 8 4 - - W 1007,2 50 0 0,0
20.01.2018 19:00:00 -1,4 -3,8 13 7 - - W 1006,0 50 0 0,0
20.01.2018 18:00:00 -1,3 -2,5 8 4 - - WNW 1004,6 50 0 0,0
20.01.2018 17:00:00 -1,0 -3,5 9 5 - - W 1003,4 50 6 0,0
20.01.2018 16:00:00 0,1 -2,9 13 7 - - WNW 1002,3 50 42 0,0
20.01.2018 15:00:00 0,6 -2,8 9 5 - - NW 1001,0 50 18 0,0
20.01.2018 14:00:00 1,8 -2,3 11 6 - - NW 999,7 50 54 0,0
20.01.2018 13:00:00 1,6 -1,8 13 7 - - WNW 999,0 45 60 0,0
20.01.2018 12:00:00 -0,5 -2,9 15 8 - - W 999,0 50 60 0,0
20.01.2018 11:00:00 -1,3 -3,0 16 9 - - W 999,0 50 24 0,0
20.01.2018 10:00:00 -1,4 -3,0 13 7 - - W 998,9 45 0 0,0
20.01.2018 09:00:00 -2,8 -3,4 11 6 - - W 998,8 50 0 0,0
20.01.2018 08:00:00 -3,4 -4,4 8 4 - - W 998,2 50 0 0,0
20.01.2018 07:00:00 -0,6 -2,1 21 11 - - W 997,5 50 0 0,0
20.01.2018 06:00:00 -1,2 -2,1 13 7 - - W 997,7 50 0 0,0
20.01.2018 05:00:00 -0,4 -1,3 15 8 - - WSW 997,7 50 0 0,0
20.01.2018 04:00:00 -0,1 -0,7 13 7 - - SSW 998,2 26 0 0,0
20.01.2018 03:00:00 -1,3 -2,1 13 7 - - SW 998,3 50 0 0,0
20.01.2018 02:00:00 -0,1 -0,8 22 12 - - SSW 998,4 50 0 0,0
20.01.2018 01:00:00 0,0 -0,8 18 10 - - SSW 999,1 50 0 0,0
20.01.2018 00:00:00 -0,7 -1,7 0 0 - - N 999,4 50 - 0,0
19.01.2018 23:00:00 -0,7 -1,9 0 0 - - N 999,8 50 0 0,0
19.01.2018 22:00:00 -3,7 -4,4 0 0 - - N 1000,4 50 0 0,0
19.01.2018 21:00:00 -2,1 -3,3 0 0 - - N 1000,1 50 0 0,0
19.01.2018 20:00:00 -1,1 -1,9 0 0 - - N 999,9 50 0 0,0
19.01.2018 19:00:00 0,6 0,1 11 6 - - WSW 999,3 50 0 0,0
19.01.2018 18:00:00 1,0 0,0 16 9 - - SW 999,3 8 0 0,0
19.01.2018 17:00:00 0,8 -0,3 15 8 - - SW 999,3 50 0 0,0
19.01.2018 16:00:00 0,4 -0,6 18 10 - - WSW 998,8 50 0 0,0
19.01.2018 15:00:00 1,1 -0,1 24 13 - - SW 998,7 50 0 0,0
19.01.2018 14:00:00 1,2 -0,6 26 14 - - W 998,8 50 18 0,0
19.01.2018 13:00:00 1,7 -1,1 28 15 - - SW 998,8 50 12 0,2
19.01.2018 12:00:00 1,5 -0,9 22 12 - - SW 999,3 50 18 0,0
19.01.2018 11:00:00 1,1 -1,3 22 12 - - SW 999,5 35 36 0,0
19.01.2018 10:00:00 0,3 -1,4 21 11 - - SSW 999,7 45 24 0,0
19.01.2018 09:00:00 -0,5 -1,9 18 10 - - SW 999,7 50 0 0,0
19.01.2018 08:00:00 -0,3 -1,4 11 6 - - SW 999,4 50 0 0,0
19.01.2018 07:00:00 0,3 -0,8 15 8 - - SW 999,6 50 0 0,0
19.01.2018 06:00:00 0,0 -1,2 16 9 - - SW 999,5 50 0 0,0
19.01.2018 05:00:00 -0,5 -1,5 16 9 - - SSW 999,4 50 0 0,0
19.01.2018 04:00:00 -0,5 -2,0 13 7 - - SW 999,7 50 0 0,0
19.01.2018 03:00:00 -1,0 -2,6 18 10 - - SW 999,5 50 0 0,0
19.01.2018 02:00:00 -0,8 -2,8 18 10 - - SW 999,4 50 0 0,0
19.01.2018 01:00:00 0,4 -1,4 22 12 - - SW 999,1 50 0 0,0
19.01.2018 00:00:00 -0,5 -1,6 11 6 - - SW 999,5 50 - 0,0
18.01.2018 23:00:00 -1,6 -3,5 5 3 - - SSW 999,4 50 0 0,0
18.01.2018 22:00:00 -1,4 -2,8 11 6 - - SW 999,2 50 0 0,0
18.01.2018 21:00:00 -1,8 -3,5 9 5 - - SW 998,7 50 0 0,0
18.01.2018 20:00:00 -0,1 -1,9 15 8 - - WSW 998,1 50 0 0,0
18.01.2018 19:00:00 -0,5 -2,2 11 6 - - SW 997,7 50 0 0,0
18.01.2018 18:00:00 0,8 -0,9 13 7 - - WSW 997,2 50 0 0,0
18.01.2018 17:00:00 -0,1 -1,1 5 3 - - SW 996,8 50 0 0,0
18.01.2018 16:00:00 1,8 -0,2 13 7 - - WSW 996,1 50 0 0,0
18.01.2018 15:00:00 2,1 0,0 16 9 - - WSW 995,5 50 0 0,0
18.01.2018 14:00:00 0,2 -1,8 9 5 - - S 995,6 50 36 0,0
18.01.2018 13:00:00 1,4 -1,1 15 8 - - SW 995,4 50 60 0,0
18.01.2018 12:00:00 1,1 -1,1 11 6 - - SSW 995,4 50 60 0,0
18.01.2018 11:00:00 0,6 -1,0 8 4 - - WSW 995,2 35 36 0,0
18.01.2018 10:00:00 0,2 -1,1 11 6 - - WSW 994,5 50 0 0,0
18.01.2018 09:00:00 0,5 -0,5 16 9 - - W 993,9 24 0 0,0

tt = Température de l'air
td = dewpoint
ff = Vitesse du vent
fx = gusts
dd = Direction du vent
ppp = reduced air pressure
vv = visibility
sd = Ensoleillement
rr = Quantités de précipitations

stations d'obs. à proximité